Wind_Speed
46 46 45 45 45 45 45 45 45 45 45 45 44 44 44 44 45 46 46 47 47 47 47 48 49 49 49 50 51 51 52 52 52 51 51 51 52 52 51 50 50 48 46
46 46 46 45 45 45 45 45 46 46 46 46 45 45 45 46 46 47 47 48 48 47 48 49 49 50 50 51 51 51 52 52 52 52 51 52 51 51 50 49 47 46 44
47 47 46 46 46 46 46 46 46 46 46 46 46 46 46 46 47 47 47 48 48 48 48 49 49 50 50 50 50 51 51 52 53 52 51 51 49 49 48 47 45 43 42
46 46 46 46 47 47 47 47 47 46 46 46 46 46 46 47 47 47 47 47 47 48 48 49 49 50 49 50 50 51 51 52 52 51 50 49 48 47 46 44 43 42 41
47 47 47 47 47 47 47 47 47 47 47 47 46 46 46 46 47 47 47 48 48 48 48 48 48 49 49 50 51 51 51 51 50 50 49 48 46 44 43 42 41 40 40
47 47 47 47 47 47 47 47 47 46 46 46 46 46 46 46 46 47 47 48 49 49 48 48 48 49 50 50 51 50 50 49 49 48 47 45 42 41 40 40 40 40 39
47 47 47 47 47 46 47 47 47 46 46 46 46 47 47 47 47 47 47 47 47 47 47 48 48 48 50 50 49 48 47 47 48 47 44 41 40 39 39 40 40 40 39
47 47 47 47 46 46 46 46 46 46 46 46 47 47 48 47 47 47 47 47 47 47 47 48 48 48 48 48 47 46 45 44 43 42 40 39 39 39 39 39 39 39 39
46 46 46 46 46 46 46 46 46 45 46 46 46 47 47 47 47 47 47 47 46 46 46 46 47 47 46 46 46 44 42 40 38 38 38 38 38 37 37 38 38 39 39
45 45 46 46 46 46 46 45 45 45 45 45 46 46 46 46 46 46 46 46 45 45 45 45 45 45 45 44 42 40 39 37 37 38 38 39 38 38 38 39 39 38 37
43 44 45 45 45 45 45 45 45 45 44 44 45 45 45 45 45 45 45 44 44 44 43 43 43 43 41 40 39 38 38 37 38 38 38 38 38 39 38 38 37 37 37
41 41 42 43 43 44 44 44 44 44 44 44 44 44 43 43 43 43 42 42 42 43 43 42 40 39 39 39 39 38 38 38 38 37 36 36 36 36 35 35 35 35 34
40 40 40 41 41 42 42 42 42 42 42 42 42 42 41 41 41 40 40 40 41 41 41 40 39 39 39 38 38 37 37 36 36 35 34 34 34 33 33 33 33 33 33
38 39 39 40 40 40 40 40 40 40 41 41 40 40 40 40 39 39 39 39 39 39 39 38 38 38 37 36 35 34 34 34 33 32 32 32 32 32 32 32 32 32 31
37 37 38 38 38 38 38 38 38 38 39 39 38 38 38 38 37 37 37 37 37 37 36 36 36 35 34 33 33 32 32 31 30 30 30 30 30 30 30 30 30 29 28
37 37 37 37 38 38 37 37 37 37 37 37 37 36 36 36 35 35 35 35 35 35 34 34 33 32 32 31 31 30 29 29 30 30 30 29 29 29 29 29 28 27 26
35 36 36 36 36 37 37 37 36 36 36 36 36 36 36 35 34 34 34 34 33 33 32 32 32 31 31 30 30 30 30 30 31 30 30 29 29 28 28 27 27 25 25
35 35 35 35 35 36 36 36 36 35 35 36 36 36 35 34 34 33 33 32 32 31 31 31 31 31 30 30 30 30 30 30 30 29 29 28 28 28 27 26 25 24 24
34 34 35 35 35 35 35 35 34 34 34 34 35 34 34 33 33 32 31 31 30 30 30 31 30 30 30 31 30 30 29 29 29 29 28 28 28 27 26 25 23 23 22
32 33 33 34 34 33 33 33 33 33 33 33 33 33 32 32 31 31 30 30 29 29 30 30 30 30 30 30 30 29 29 29 29 28 27 27 26 25 24 22 21 21 20
30 30 31 31 32 31 31 31 32 31 31 31 31 30 30 30 30 29 29 29 29 29 29 29 29 29 29 29 29 28 27 27 27 26 25 24 23 22 22 21 20 19 18
29 29 29 29 29 29 29 30 30 30 30 30 30 29 29 29 29 29 28 28 28 28 28 28 28 28 27 27 26 25 25 24 24 23 22 21 20 20 20 19 17 17 16
28 28 27 27 27 28 28 27 27 27 28 27 27 28 27 27 27 27 26 27 27 27 27 27 27 26 26 25 24 23 22 21 21 20 19 18 17 17 17 16 16 15 15
26 26 26 26 27 26 26 26 26 26 26 26 26 26 26 26 25 25 25 26 25 25 24 24 24 23 23 22 21 20 19 18 17 16 16 15 15 14 14 13 13 13 13
25 25 25 24 24 25 25 25 25 25 25 24 24 24 24 23 23 23 23 23 23 22 22 22 21 20 19 18 18 17 16 15 14 14 13 13 13 12 11 11 11 11 11
23 24 23 23 23 24 24 23 23 23 23 22 22 22 22 22 21 21 21 21 21 20 20 19 18 17 16 15 14 13 12 12 11 11 11 11 11 10 10 10 10 10 9
Wind_Direction
247 249 251 253 255 256 257 259 262 264 266 268 269 270 271 273 274 276 278 279 280 282 283 284 284 286 287 287 289 289 290 291 292 293 294 294 294 296 296 295 294 293 293
247 249 251 253 255 257 258 260 262 265 267 268 269 270 272 273 275 276 278 280 281 282 283 284 285 286 287 288 289 289 290 291 293 293 294 294 294 295 295 294 293 293 293
248 249 251 253 255 257 259 261 264 265 266 268 269 270 271 273 275 276 278 279 281 282 283 284 285 286 288 288 289 290 290 291 293 293 294 294 294 294 294 294 293 293 293
248 250 252 254 256 258 260 262 264 265 266 268 269 270 271 273 274 276 277 279 280 281 283 284 285 286 287 288 289 290 291 292 293 293 293 294 294 294 293 292 292 292 292
249 251 252 254 256 258 260 262 263 265 266 268 270 271 272 273 274 276 277 278 280 281 282 284 285 286 288 288 290 290 291 292 292 293 293 293 293 293 292 292 291 291 293
249 251 252 254 256 258 260 261 263 265 267 268 270 271 272 274 275 277 277 278 280 281 281 282 285 286 288 289 290 291 291 291 292 293 293 293 292 292 292 292 292 292 294
248 250 252 253 255 257 259 261 263 266 267 269 270 271 273 274 275 277 279 280 281 282 282 283 284 286 288 289 290 290 291 291 291 293 292 291 292 292 292 291 292 294 296
248 250 251 253 255 257 259 261 263 265 267 269 270 272 273 274 276 277 278 279 281 282 283 285 286 287 288 288 288 290 290 291 291 291 291 292 293 292 292 293 294 295 296
248 250 252 253 255 257 259 261 263 265 268 269 271 272 273 275 276 277 278 279 281 282 284 285 286 286 287 287 288 289 289 289 289 290 291 292 293 293 294 294 295 296 296
249 251 252 254 256 257 260 261 264 266 268 270 271 273 274 275 276 277 278 279 280 281 282 284 285 286 286 287 288 288 289 289 289 290 291 291 292 293 294 295 295 295 295
251 252 252 254 256 258 260 262 264 267 269 270 272 274 275 276 276 277 277 278 280 281 282 283 284 285 285 285 286 288 289 289 289 290 290 290 291 292 293 294 294 294 295
251 253 254 255 256 258 261 263 266 268 270 271 272 274 275 276 276 277 277 278 280 281 282 283 283 283 284 285 287 288 288 289 289 289 289 290 291 292 292 294 294 294 295
252 253 254 255 257 259 261 263 266 268 269 270 272 273 274 275 276 276 277 278 279 280 281 280 281 282 284 286 287 287 287 287 288 289 290 291 292 292 292 293 294 295 295
252 254 254 255 258 260 262 264 265 267 268 269 270 272 274 274 275 275 277 278 278 279 280 281 282 284 284 284 284 285 285 287 288 289 290 292 292 292 293 294 296 297 297
253 254 256 257 259 261 263 264 265 267 269 269 270 271 273 273 274 276 276 276 276 277 278 279 280 281 282 282 283 285 286 287 288 289 291 291 292 293 294 295 296 297 296
253 255 258 259 260 262 264 266 267 269 269 269 270 271 272 273 273 273 273 275 276 276 277 277 279 280 282 283 284 284 285 286 287 289 290 290 291 292 294 295 296 296 296
255 256 258 259 260 262 264 266 268 268 268 268 269 271 271 272 272 272 273 275 275 276 277 278 279 281 282 283 283 284 285 286 287 288 288 289 291 292 294 295 294 294 294
257 258 258 259 261 262 264 266 267 267 267 268 269 270 271 270 271 273 273 273 274 274 276 279 280 281 282 283 283 284 285 286 286 287 287 288 290 291 292 293 293 292 292
259 259 259 260 261 263 264 265 266 267 268 268 269 269 269 270 270 272 273 274 274 275 276 278 279 280 281 282 282 283 284 284 285 285 286 287 288 289 290 290 291 291 293
260 260 260 260 261 262 262 264 265 267 268 268 267 267 268 268 269 271 272 273 274 275 276 277 278 280 281 281 281 282 283 284 284 284 284 286 286 287 287 287 288 291 294
261 261 261 260 260 260 261 263 265 266 267 266 266 267 267 267 268 270 271 272 273 275 276 277 279 280 281 281 281 282 282 282 282 282 283 284 284 284 284 284 286 290 292
260 260 260 260 260 261 262 263 264 265 265 264 265 265 266 266 268 269 270 272 274 275 275 276 278 280 281 280 280 281 282 281 280 280 281 281 280 282 283 284 285 289 292
259 259 259 259 259 260 261 261 262 263 263 263 263 264 265 266 267 268 269 271 273 274 274 276 277 279 279 279 279 280 280 280 279 277 276 276 278 279 281 284 285 287 289
259 257 258 259 259 259 259 260 261 262 262 262 264 265 265 266 267 268 269 271 272 273 274 275 276 276 276 277 277 276 278 278 276 272 271 273 274 277 281 283 284 285 285
259 259 259 258 258 258 259 260 260 261 262 263 264 265 265 266 267 269 270 271 271 271 273 274 273 273 274 275 274 273 272 272 273 271 270 271 272 275 279 282 283 283 282
260 258 256 256 258 258 258 258 259 261 261 262 263 264 265 267 269 270 269 269 269 270 271 270 269 269 270 269 268 267 267 268 272 273 272 271 272 275 278 280 282 282 281
Height
5698 5701 5703 5705 5707 5708 5710 5711 5711 5712 5712 5712 5712 5711 5710 5710 5708 5707 5706 5704 5702 5699 5697 5694 5691 5688 5685 5681 5678 5674 5671 5667 5663 5662 5657 5652 5647 5641 5636 5630 5625 5620 5616
5688 5690 5693 5695 5696 5698 5699 5700 5701 5701 5701 5701 5701 5700 5699 5698 5697 5696 5694 5692 5690 5688 5685 5683 5679 5676 5673 5669 5666 5662 5659 5655 5651 5648 5645 5639 5634 5628 5624 5619 5614 5609 5605
5677 5679 5682 5684 5685 5687 5688 5689 5689 5690 5690 5689 5689 5689 5688 5687 5686 5684 5682 5680 5678 5676 5673 5670 5667 5664 5661 5657 5654 5650 5646 5642 5638 5634 5631 5626 5622 5617 5612 5608 5603 5599 5595
5665 5668 5670 5672 5674 5675 5676 5677 5678 5678 5678 5678 5678 5677 5676 5675 5673 5672 5670 5668 5666 5664 5661 5658 5655 5652 5649 5646 5642 5638 5634 5630 5626 5622 5618 5614 5610 5606 5601 5598 5594 5590 5586
5654 5657 5659 5661 5662 5664 5665 5665 5666 5666 5666 5666 5666 5665 5664 5663 5661 5660 5658 5656 5654 5652 5649 5647 5644 5641 5637 5634 5630 5626 5622 5618 5614 5610 5606 5603 5599 5595 5591 5587 5584 5581 5577
5643 5645 5647 5649 5651 5652 5653 5654 5654 5654 5655 5654 5654 5653 5652 5651 5649 5647 5646 5644 5642 5640 5637 5635 5632 5629 5626 5622 5618 5614 5610 5606 5602 5598 5595 5591 5588 5584 5581 5578 5574 5572 5569
5631 5633 5635 5637 5639 5640 5641 5642 5643 5643 5643 5642 5642 5641 5640 5639 5637 5635 5633 5632 5630 5627 5625 5623 5620 5617 5613 5610 5607 5603 5598 5594 5591 5587 5584 5581 5578 5575 5572 5569 5565 5562 5558
5619 5621 5624 5626 5627 5629 5630 5631 5631 5631 5631 5630 5630 5628 5627 5626 5625 5623 5621 5619 5617 5615 5613 5610 5608 5605 5602 5598 5595 5592 5588 5584 5581 5577 5574 5571 5568 5565 5562 5559 5556 5552 5549
5607 5610 5612 5614 5616 5617 5618 5619 5619 5619 5619 5618 5617 5616 5615 5614 5612 5610 5608 5607 5605 5603 5601 5598 5596 5593 5590 5587 5584 5581 5578 5575 5571 5568 5565 5562 5559 5556 5553 5550 5547 5543 5540
5596 5598 5600 5602 5604 5605 5606 5607 5607 5607 5606 5606 5605 5603 5602 5601 5599 5598 5596 5594 5593 5591 5589 5587 5584 5581 5578 5575 5573 5571 5568 5565 5562 5559 5556 5553 5550 5547 5544 5540 5537 5534 5530
5584 5586 5588 5590 5592 5593 5595 5595 5595 5595 5594 5594 5593 5592 5590 5589 5587 5585 5584 5582 5580 5579 5577 5575 5572 5570 5567 5565 5562 5560 5558 5555 5553 5550 5547 5544 5541 5538 5534 5531 5528 5524 5521
5573 5575 5577 5579 5580 5582 5583 5583 5583 5583 5583 5582 5581 5580 5578 5577 5575 5574 5572 5570 5569 5567 5566 5564 5561 5559 5557 5555 5553 5550 5548 5545 5543 5540 5538 5535 5532 5529 5525 5522 5519 5516 5512
5562 5564 5566 5568 5569 5570 5571 5571 5572 5571 5571 5570 5569 5568 5567 5566 5564 5563 5561 5560 5558 5556 5554 5553 5551 5549 5547 5544 5542 5540 5538 5536 5533 5531 5529 5526 5523 5520 5517 5514 5511 5508 5504
5552 5554 5555 5557 5558 5559 5559 5560 5560 5560 5560 5559 5558 5557 5556 5555 5553 5552 5551 5549 5547 5545 5544 5542 5540 5538 5536 5534 5532 5530 5528 5526 5524 5522 5520 5517 5514 5511 5509 5506 5503 5500 5497
5542 5543 5545 5546 5547 5548 5549 5549 5549 5549 5549 5548 5547 5546 5545 5544 5543 5541 5539 5538 5537 5535 5533 5532 5530 5528 5526 5524 5523 5521 5520 5518 5516 5514 5511 5509 5506 5503 5501 5498 5495 5493 5490
5531 5533 5534 5535 5537 5538 5538 5539 5538 5538 5538 5537 5536 5536 5534 5534 5532 5531 5530 5528 5527 5525 5524 5522 5520 5519 5517 5516 5514 5513 5511 5510 5508 5506 5504 5501 5499 5496 5493 5491 5488 5486 5483
5521 5522 5524 5525 5526 5527 5527 5528 5528 5528 5527 5527 5526 5525 5524 5523 5522 5521 5520 5518 5517 5516 5514 5513 5512 5510 5509 5507 5506 5505 5503 5502 5500 5498 5496 5493 5491 5489 5486 5484 5481 5479 5477
5510 5512 5513 5514 5515 5516 5516 5517 5517 5517 5517 5516 5516 5515 5514 5513 5513 5511 5510 5509 5508 5507 5505 5504 5503 5502 5500 5499 5498 5496 5495 5493 5492 5490 5488 5486 5484 5481 5479 5477 5475 5473 5471
5500 5501 5502 5503 5504 5505 5506 5506 5506 5506 5506 5506 5506 5505 5504 5504 5503 5502 5501 5500 5499 5498 5497 5496 5495 5493 5492 5491 5490 5488 5486 5485 5483 5482 5480 5478 5476 5474 5472 5471 5469 5467 5465
5490 5491 5492 5493 5494 5494 5495 5496 5496 5496 5496 5496 5496 5495 5495 5494 5494 5493 5492 5492 5491 5490 5489 5487 5486 5485 5484 5482 5481 5479 5478 5477 5475 5474 5472 5470 5469 5467 5466 5464 5463 5461 5460
5480 5481 5482 5482 5483 5484 5485 5486 5486 5486 5486 5486 5486 5486 5485 5485 5485 5485 5484 5483 5482 5481 5480 5479 5478 5477 5475 5474 5472 5471 5470 5468 5467 5466 5464 5463 5462 5461 5460 5458 5457 5456 5454
5471 5472 5473 5473 5474 5475 5475 5476 5476 5476 5476 5477 5477 5477 5476 5476 5476 5476 5475 5474 5474 5473 5472 5471 5470 5468 5467 5466 5464 5463 5462 5461 5459 5458 5457 5456 5455 5455 5454 5453 5452 5451 5449
5462 5463 5464 5464 5465 5466 5466 5466 5467 5467 5467 5467 5468 5468 5468 5468 5467 5467 5467 5466 5465 5465 5464 5463 5462 5461 5459 5458 5457 5456 5455 5454 5453 5452 5451 5450 5450 5449 5448 5448 5447 5446 5445
5454 5454 5455 5456 5456 5457 5457 5458 5458 5458 5459 5459 5459 5459 5459 5459 5459 5459 5459 5458 5457 5457 5456 5455 5454 5453 5452 5451 5450 5450 5449 5448 5447 5446 5446 5445 5445 5444 5444 5443 5443 5442 5441
5445 5446 5446 5447 5448 5448 5449 5449 5450 5450 5450 5451 5451 5451 5451 5451 5451 5451 5451 5450 5450 5449 5449 5448 5447 5447 5446 5445 5444 5444 5443 5443 5442 5442 5441 5441 5440 5440 5440 5439 5439 5438 5438
5437 5438 5438 5439 5440 5440 5441 5441 5442 5442 5443 5443 5443 5444 5444 5444 5444 5444 5443 5443 5443 5443 5442 5442 5442 5441 5441 5440 5440 5439 5439 5439 5439 5438 5437 5437 5437 5437 5437 5436 5436 5435 5435